Location: Manning Provincial Park
(49.0805°N, 120.7632°W)
Time: 09:51:13
(UTC-08:00)

Envisat - Visible Passes

Search period start: 12 November 2018 00:00
Search period end: 22 November 2018 00:00
Orbit: 764 x 766 km, 98.2° (Epoch: 12 November)

Date Brightness Start Highest point End Pass type
(mag) Time Alt. Az. Time Alt. Az. Time Alt. Az.
12 Nov 6.0 06:28:45 10° NE 06:31:29 14° E 06:34:12 10° ESE visible
12 Nov 3.8 17:46:40 10° ESE 17:51:00 30° ENE 17:55:22 10° N visible
12 Nov 4.0 19:25:01 10° S 19:29:52 44° W 19:34:44 10° NNW visible
13 Nov 4.5 17:11:36 10° E 17:14:41 16° NE 17:17:45 10° NNE visible
13 Nov 2.9 18:47:56 10° SSE 18:53:01 89° WSW 18:58:09 10° NNW visible
13 Nov 5.8 20:30:20 10° WSW 20:32:47 13° W 20:35:16 10° WNW visible
14 Nov 3.2 18:11:32 10° SE 18:16:22 46° ENE 18:21:14 10° N visible
14 Nov 4.9 19:51:19 10° SSW 19:55:36 27° W 19:59:55 10° NW visible
15 Nov 6.2 06:18:29 10° ENE 06:20:07 11° E 06:21:46 10° ESE visible
15 Nov 4.0 17:35:52 10° ESE 17:39:55 25° ENE 17:44:00 10° N visible
15 Nov 3.6 19:14:17 14° S 19:18:37 55° W 19:23:38 10° NNW visible
16 Nov 4.6 17:01:12 10° E 17:03:39 14° NE 17:06:07 10° NNE visible
16 Nov 2.8 18:37:20 13° SSE 18:41:50 75° ENE 18:46:56 10° N visible
16 Nov 5.6 20:18:14 10° SW 20:21:27 17° W 20:24:41 10° NW visible
17 Nov 5.8 06:42:25 10° NE 06:46:03 19° E 06:49:39 10° SE visible
17 Nov 3.4 18:00:35 10° SE 18:05:15 38° ENE 18:09:56 10° N visible
17 Nov 4.5 19:40:34 14° SSW 19:44:19 33° W 19:48:55 10° NNW visible
18 Nov 4.2 17:25:09 10° ESE 17:28:51 21° ENE 17:32:34 10° NNE visible
18 Nov 3.2 19:03:34 18° S 19:07:24 68° WSW 19:12:30 10° NNW visible
19 Nov 4.8 16:51:05 10° ENE 16:52:38 11° NE 16:54:12 10° NNE visible
19 Nov 2.9 18:26:35 15° SSE 18:30:40 61° ENE 18:35:42 10° N visible
19 Nov 5.3 20:06:48 12° SW 20:10:07 21° W 20:13:54 10° NW visible
20 Nov 5.9 06:31:40 10° NE 06:34:43 16° E 06:37:44 10° SE visible
20 Nov 3.7 17:49:41 10° SE 17:54:08 32° ENE 17:58:36 10° N visible
20 Nov 4.1 19:29:46 19° SSW 19:33:04 41° W 19:37:52 10° NNW visible
21 Nov 4.4 17:14:31 10° E 17:17:48 18° ENE 17:21:04 10° NNE visible
21 Nov 2.9 18:52:44 21° S 18:56:12 83° WSW 19:01:19 10° NNW visible
21 Nov 5.9 20:33:59 10° WSW 20:36:02 12° W 20:38:05 10° WNW visible
